DW3693 Weather Reports


time (UTC)temp
C
wind
direction
speed
KPH
gust
KPH
rain 1hr
cm
rain 24hr
cm
rain mn
cm
humidity
%
barometer
mb
20260503185039 25 315 1.6 8.0 0.00 0.00 0.00 53 1012.6
20260503184017 24 23 3.2 6.4 0.00 0.00 0.00 52 1012.8
20260503183036 24 23 1.6 4.8 0.00 0.00 0.00 49 1012.8
20260503182017 23 0 1.6 4.8 0.00 0.00 0.00 53 1012.9
20260503181017 23 45 1.6 3.2 0.00 0.00 0.00 55 1013.0
20260503180017 22 45 1.6 3.2 0.00 0.00 0.00 59 1013.0
20260503175016 22 23 1.6 8.0 0.00 0.00 0.00 55 1013.1
20260503174017 22 113 1.6 4.8 0.00 0.00 0.00 55 1013.2
20260503173016 21 113 1.6 3.2 0.00 0.00 0.00 53 1013.3
20260503172018 21 90 1.6 4.8 0.00 0.00 0.00 57 1013.5
20260503171016 21 68 1.6 4.8 0.00 0.00 0.00 61 1013.5
20260503131016 9 0.0 3.2 0.00 0.00 0.00 90 1013.8
20260503081015 12 0.0 1.6 0.00 0.00 0.00 86 1013.1
20260503072038 13 0.0 0.0 0.00 0.00 0.00 85 1012.9
20260503071017 13 0.0 1.6 0.00 0.00 0.00 84 1013.0
20260503054537 15 0.0 0.0 0.00 0.00 0.00 83 1012.8
20260503053516 15 0.0 0.0 0.00 0.00 0.00 82 1012.7
20260503052536 15 0.0 3.2 0.00 0.00 0.00 82 1012.8
20260503051516 15 90 1.6 3.2 0.00 0.00 0.00 81 1012.6
20260503050516 16 0.0 3.2 0.00 0.00 0.00 78 1012.6
20260503045515 16 0.0 3.2 0.00 0.00 0.00 78 1012.5
20260503044537 16 45 1.6 3.2 0.00 0.00 0.00 80 1012.5
20260503043517 16 0.0 3.2 0.00 0.00 0.00 81 1012.4
20260503042516 16 0.0 1.6 0.00 0.00 0.00 80 1012.5
20260503041516 16 0.0 3.2 0.00 0.00 0.00 81 1012.3
20260503040606 16 0.0 1.6 0.00 0.00 0.00 82 1012.2
20260503040016 16 0.0 1.6 0.00 0.00 0.00 83 1012.2
20260503035017 17 0.0 3.2 0.00 0.00 0.00 83 1011.9
20260503034016 17 45 1.6 3.2 0.00 0.00 0.00 79 1011.7
20260503033017 17 0.0 0.0 0.00 0.00 0.00 79 1011.6
20260503032037 18 0.0 0.0 0.00 0.00 0.00 77 1011.1
20260503031016 18 0.0 1.6 0.00 0.00 0.00 77 1010.8
20260503030017 19 45 1.6 3.2 0.00 0.00 0.00 80 1010.8
20260503025018 20 0.0 0.0 0.00 0.00 0.00 79 1010.8
20260503024016 20 0.0 1.6 0.00 0.00 0.00 75 1010.7
20260503023016 21 0.0 1.6 0.00 0.00 0.00 74 1010.7
20260503022037 21 0.0 0.0 0.00 0.00 0.00 71 1010.6
20260503021036 21 0.0 0.0 0.00 0.00 0.00 68 1010.5
20260503020016 22 0.0 1.6 0.00 0.00 0.00 64 1010.4
20260503015017 22 0.0 0.0 0.00 0.00 0.00 64 1010.4
20260503014016 22 0.0 1.6 0.00 0.00 0.00 59 1010.3
20260503013035 23 0.0 0.0 0.00 0.00 0.00 68 1010.5
20260503012037 23 0.0 0.0 0.00 0.00 0.00 65 1010.5
20260503011037 23 0.0 0.0 0.00 0.00 0.00 66 1010.5
20260503010016 24 0.0 0.0 0.00 0.00 0.00 58 1010.5
20260503005017 25 0.0 1.6 0.00 0.00 0.00 58 1010.6
20260503004016 25 0.0 1.6 0.00 0.00 0.00 51 1010.6
20260503003015 26 0.0 1.6 0.00 0.00 0.00 51 1010.6
20260503002016 26 0.0 1.6 0.00 0.00 0.00 47 1010.5
20260503001017 25 45 1.6 4.8 0.00 0.00 0.00 56 1010.7
20260503000015 26 45 1.6 4.8 0.00 0.00 0.00 46 1010.5
20260502235016 26 0.0 1.6 0.00 0.00 0.00 50 1010.7
20260502234038 26 0.0 3.2 0.00 0.00 0.00 50 1010.9
20260502233016 25 45 1.6 3.2 0.00 0.00 0.00 52 1011.1
20260502232015 26 68 1.6 3.2 0.00 0.00 0.00 50 1011.2
20260502231015 25 45 3.2 6.4 0.00 0.00 0.00 51 1011.2
20260502230016 25 0.0 3.2 0.00 0.00 0.00 58 1011.5
20260502225016 25 23 1.6 4.8 0.00 0.00 0.00 51 1011.6
20260502224059 25 23 1.6 3.2 0.00 0.00 0.00 49 1011.8
20260502223015 25 0 1.6 4.8 0.00 0.00 0.00 53 1012.0
20260502222016 25 23 3.2 6.4 0.00 0.00 0.00 52 1012.1
20260502221036 25 68 3.2 6.4 0.00 0.00 0.00 47 1012.3
20260502220039 25 45 1.6 4.8 0.00 0.00 0.00 53 1012.3
20260502215015 24 113 3.2 6.4 0.00 0.00 0.00 58 1012.5
20260502214017 24 113 1.6 4.8 0.00 0.00 0.00 58 1012.6
20260502213017 23 203 1.6 4.8 0.00 0.00 0.00 59 1012.9
20260502212017 22 0.0 3.2 0.00 0.00 0.00 61 1012.8
20260502211017 21 0.0 3.2 0.00 0.00 0.00 64 1012.8
20260502210017 20 45 1.6 4.8 0.00 0.00 0.00 62 1013.2
20260502205017 20 23 3.2 6.4 0.00 0.00 0.00 63 1013.2
20260502204017 21 23 1.6 4.8 0.00 0.00 0.00 62 1013.2
20260502203037 21 45 3.2 6.4 0.00 0.00 0.00 62 1013.4
20260502202017 21 0.0 1.6 0.00 0.00 0.00 66 1013.3
20260502201017 20 180 3.2 8.0 0.00 0.00 0.00 64 1013.4
20260502200017 19 113 3.2 6.4 0.00 0.00 0.00 70 1013.3
20260502195015 17 68 1.6 4.8 0.00 0.00 0.00 78 1013.4
20260502194017 16 0.0 3.2 0.00 0.00 0.00 79 1013.5
20260502193017 16 0.0 3.2 0.00 0.00 0.00 78 1013.5
20260502192017 16 68 1.6 1.6 0.00 0.00 0.00 77 1013.9
20260502191037 16 68 1.6 3.2 0.00 0.00 0.00 77 1014.1
20260502190017 16 270 1.6 4.8 0.00 0.00 0.00 77 1014.4